Regional Weather Roundup
Issued by NWS

Home | Current Version | Previous Version | Text Only | Print | Product List | Glossary Off
Versions: 1 2 3 4 5 6 7 8 9 10 11 12 13 14 15 16 17 18 19 20 21 22 23 24 25 26 27 28

000
ASUS45 KPSR 190110
RWRAZ

ARIZONA HOURLY REGIONAL WEATHER ROUNDUP
NATIONAL WEATHER SERVICE PHOENIX AZ
600 PM MST SAT NOV 18 2017

NOTE: FAIR INDICATES FEW OR NO CLOUDS BELOW 12,000 FEET WITH NO
SIGNIFICANT WEATHER AND/OR OBSTRUCTIONS TO VISIBILITY.

AZZ001>003-036-190200-
NORTHWEST ARIZONA

CITY           SKY/WX    TMP DP  RH WIND       PRES   REMARKS
BULLHEAD CITY  PTCLDY    64  12  13 N20G28    30.15R
KINGMAN        PTCLDY    45  12  26 E7        30.21R
$$

AZZ004>008-015-016-018-190200-
NORTH CENTRAL ARIZONA

CITY           SKY/WX    TMP DP  RH WIND       PRES   REMARKS
GRAND CANYON   PTCLDY    37   0  21 NE8       30.30F WCI  31
WILLIAMS       PTCLDY    41   5  22 S7        30.27S
PRESCOTT       PTCLDY    47   9  21 CALM      30.22R
FLAGSTAFF      PTCLDY    30   0  27 NE7       30.31S WCI  23
PAYSON         FAIR      50   5  16 N9        30.24R
PAGE           PTCLDY    43  13  29 CALM      30.33F
$$

AZZ009>014-017-190200-
NORTHEAST ARIZONA

CITY           SKY/WX    TMP DP  RH WIND       PRES   REMARKS
WINSLOW        PTCLDY    42   0  17 NW5       30.31R
SAINT JOHNS    CLEAR     37  10  32 W5        30.29S WCI  33
WINDOW ROCK    PTCLDY    39   5  24 E12       30.34R WCI  32
SHOW LOW       PTCLDY    36   3  25 N5        30.31F WCI  32
$$

AZZ540-542>544-546-548-190200-
GREATER PHOENIX AREA

CITY           SKY/WX    TMP DP  RH WIND       PRES   REMARKS
PHOENIX        PTCLDY    76  26  15 NW6       30.03S
BUCKEYE        CLEAR     68  36  30 W8        30.06R
GLENDALE       PTCLDY    73  28  19 CALM      30.05S
LUKE AFB       PTCLDY    69  32  25 NW3       30.03S
DEER VALLEY    PTCLDY    70  18  13 W5        30.05R
SCOTTSDALE     PTCLDY    73  29  19 W5        30.07R
MESA-FALCON    PTCLDY    70  34  26 CALM      30.06R
MESA-GATEWAY   PTCLDY    70  25  18 NW6       30.06R
CHANDLER       CLEAR     73  28  19 NW3       30.04S
$$

AZZ539-553-190200-
SOUTHWEST MARICOPA COUNTY AND PINAL COUNTY

CITY           SKY/WX    TMP DP  RH WIND       PRES   REMARKS
CASA GRANDE    NOT AVBL
$$

AZZ503-504-507>509-190200-
SOUTHEAST ARIZONA

CITY           SKY/WX    TMP DP  RH WIND       PRES   REMARKS
TUCSON         PTCLDY    71  26  18 NW7       30.09R
DAVIS-MONTHAN  CLEAR     69  26  20 NW9       30.07R
RYAN FIELD     CLEAR     68  27  21 MISG      30.09R
NOGALES        PTCLDY    67  31  26 NE12      30.10R
SIERRA VISTA   MOCLDY    62  26  25 N3        30.17R
DOUGLAS        PTCLDY    61  27  27 N10       30.13S
SAFFORD        PTCLDY    63  24  22 NW5       30.11S
$$

AZZ532-190200-
SOUTHWEST ARIZONA

CITY           SKY/WX    TMP DP  RH WIND       PRES   REMARKS
YUMA           CLEAR     71  17  12 N12       30.07R
$$

CAZ041-043-047-048-061-525>527-560>570-190200-
SOUTHERN CALIFORNIA

CITY           SKY/WX    TMP DP  RH WIND       PRES   REMARKS
DOWNTOWN L.A.  MOCLDY    66  49  54 W3        30.05S
L.A. AIRPORT   MOCLDY    65  53  65 W14       30.06F
SAN DIEGO      MOCLDY    67  57  70 N9        30.06S
BURBANK        MOCLDY    74  25  16 NW5       30.05S
ONTARIO        MOCLDY    72  23  16 CALM      30.06R
RIVERSIDE      PTCLDY    71  21  15 NE8       30.07R
PALM SPRINGS   PTCLDY    75  16  10 NW9       30.10R
EL CENTRO NAS  CLEAR     72  26  18 CALM      30.10R
IMPERIAL       CLEAR     72  34  24 NW5       30.07S
BLYTHE         PTCLDY    69  10  10 N10       30.11R
NEEDLES        PTCLDY    64  12  13 N8        30.16R
$$

NVZ020-UTZ003-190200-
SOUTHERN NEVADA-UTAH

CITY           SKY/WX    TMP DP  RH WIND       PRES   REMARKS
LAS VEGAS      PTCLDY    58  10  15 N3        30.23S
SALT LAKE CITY MOCLDY    36  27  69 N7        30.37S WCI  30
$$

NMZ009-TXZ055-190200-
NEW MEXICO-WEST TEXAS

CITY           SKY/WX    TMP DP  RH WIND       PRES   REMARKS
ALBUQUERQUE    CLEAR     47   5  18 N7        30.33R
EL PASO        PTCLDY    58  22  24 E9        30.23R
$$


........................KEY........................
SKY/WX - SKY CONDITION/WEATHER
TMP    - TEMPERATURE IN FAHRENHEIT
DP     - DEW POINT IN FAHRENHEIT
RH     - RELATIVE HUMIDITY IN PERCENT
WIND   - DIRECTION AND SPEED IN MILES PER HOUR (MPH)
VRB    - VARIABLE WIND DIRECTION
PRES   - MEAN SEA LEVEL PRESSURE IN INCHES OF MERCURY
         F - FALLING PRESSURE   R - RISING PRESSURE
         S - STEADY PRESSURE
VSB    - VISIBILITY IN MILES
HX     - HEAT INDEX IN FAHRENHEIT
WCI    - WIND CHILL INDEX IN FAHRENHEIT
TC     - TEMPERATURE IN CELSIUS WHICH IS ALSO KNOWN AS
         TEMPERATURE IN CENTIGRADE
AFB    - AIR FORCE BASE
         LUKE AFB IS LUKE AIR FORCE BASE
         DAVIS-MONTHAN IS DAVIS-MONTHAN AIR FORCE BASE
NAS    - NAVAL AIR STATION
         EL CENTRO NAS IS EL CENTRO NAVAL AIR STATION
N/A    - NOT AVAILABLE





USA.gov is the U.S. government's official web portal to all federal, state and local government web resources and services.